Terminal Aerodrome Forecast
Issued by NWS

Home | Current Version | Previous Version | Text Only | Print | Product List | Glossary On
Versions: 1 2 3 4 5 6 7 8 9 10 11 12 13 14 15 16
590
FTAK31 PAJN 121506 AAA
TAFAPG
TAF AMD
PAPG 121506Z 1215/1312 VRB05KT P6SM -SHRA OVC040 WS020/12040KT
     FM121800 15005G15KT 5SM -SHRA BR SCT015 OVC030
     FM130000 12005KT 6SM BR FEW010 OVC050
     FM130300 15004KT 5SM BR FEW006 BKN070 OVC100
      AMD LTD TO CLD VIS AND WIND 1212/1215=

USA.gov is the U.S. government's official web portal to all federal, state and local government web resources and services.